| time (UTC) | temp C | wind direction | speed KPH | gust KPH | rain 1hr cm | rain 24hr cm | rain mn cm | humidity % | barometer mb |
| 20260508115447 | 0 | 122 | 0.0 | 0.0 | 0.00 | 0.00 | 0.00 | 91 | 1013.8 |
| 20260508114943 | -17 | 0.0 | 0.0 | 0.00 | 0.00 | 0.00 | 1013.8 | ||
| 20260508114440 | -17 | 0.0 | 0.0 | 0.00 | 0.00 | 0.00 | 1013.8 | ||
| 20260508113937 | -17 | 0.0 | 0.0 | 0.00 | 0.00 | 0.00 | 1013.7 | ||
| 20260508113435 | -17 | 0.0 | 0.0 | 0.00 | 0.00 | 0.00 | 1013.7 | ||
| 20260508112932 | -17 | 0.0 | 0.0 | 0.00 | 0.00 | 0.00 | 1013.7 | ||
| 20260508112428 | 0 | 120 | 0.0 | 0.0 | 0.00 | 0.00 | 0.00 | 92 | 1013.7 |
| 20260508111925 | 0 | 120 | 0.0 | 0.0 | 0.00 | 0.00 | 0.00 | 92 | 1014.0 |
| 20260508111422 | 1 | 120 | 0.0 | 0.0 | 0.00 | 0.00 | 0.00 | 92 | 1013.8 |
| 20260508110919 | 1 | 169 | 1.6 | 1.6 | 0.00 | 0.00 | 0.00 | 92 | 1013.6 |
| 20260508110417 | 1 | 169 | 1.6 | 1.6 | 0.00 | 0.00 | 0.00 | 92 | 1013.6 |
| 20260508105916 | 1 | 113 | 0.0 | 0.0 | 0.00 | 0.00 | 0.00 | 92 | 1013.8 |
| 20260508105413 | 1 | 113 | 0.0 | 0.0 | 0.00 | 0.00 | 0.00 | 92 | 1013.7 |
| 20260508104910 | 1 | 152 | 0.0 | 0.0 | 0.00 | 0.00 | 0.00 | 92 | 1013.9 |
| 20260508104407 | 1 | 140 | 0.0 | 0.0 | 0.00 | 0.00 | 0.00 | 90 | 1013.7 |
| 20260508103904 | 1 | 122 | 0.0 | 0.0 | 0.00 | 0.00 | 0.00 | 89 | 1013.8 |
| 20260508103401 | 1 | 129 | 0.0 | 0.0 | 0.00 | 0.00 | 0.00 | 87 | 1013.8 |
| 20260508102858 | 1 | 126 | 0.0 | 0.0 | 0.00 | 0.00 | 0.00 | 87 | 1013.5 |
| 20260508102357 | 1 | 122 | 1.6 | 1.6 | 0.00 | 0.00 | 0.00 | 86 | 1013.5 |
| 20260508101854 | 2 | 98 | 1.6 | 1.6 | 0.00 | 0.00 | 0.00 | 86 | 1013.7 |
| 20260508101351 | 2 | 158 | 0.0 | 1.6 | 0.00 | 0.00 | 0.00 | 86 | 1013.6 |
| 20260508100848 | 2 | 114 | 0.0 | 0.0 | 0.00 | 0.00 | 0.00 | 86 | 1013.6 |
| 20260508100347 | -17 | 0.0 | 0.0 | 0.00 | 0.00 | 0.00 | 1013.3 | ||
| 20260508095842 | -17 | 0.0 | 0.0 | 0.00 | 0.00 | 0.00 | 1013.3 | ||
| 20260508095340 | 2 | 124 | 0.0 | 0.0 | 0.00 | 0.00 | 0.00 | 85 | 1013.5 |
| 20260508094837 | 2 | 124 | 0.0 | 0.0 | 0.00 | 0.00 | 0.00 | 85 | 1013.6 |
| 20260508094333 | 2 | 146 | 0.0 | 0.0 | 0.00 | 0.00 | 0.00 | 86 | 1013.5 |
| 20260508093831 | 2 | 146 | 0.0 | 0.0 | 0.00 | 0.00 | 0.00 | 86 | 1013.5 |
| 20260508093328 | 2 | 116 | 0.0 | 0.0 | 0.00 | 0.00 | 0.00 | 87 | 1013.7 |
| 20260508092825 | 2 | 114 | 0.0 | 0.0 | 0.00 | 0.00 | 0.00 | 87 | 1013.4 |
| 20260508092323 | 3 | 136 | 0.0 | 0.0 | 0.00 | 0.00 | 0.00 | 87 | 1013.5 |
| 20260508091821 | 3 | 137 | 0.0 | 1.6 | 0.00 | 0.00 | 0.00 | 85 | 1013.5 |
| 20260508091317 | -17 | 0.0 | 0.0 | 0.00 | 0.00 | 0.00 | 1013.4 | ||
| 20260508090815 | 3 | 175 | 3.2 | 3.2 | 0.00 | 0.00 | 0.00 | 83 | 1013.7 |
| 20260508090314 | 3 | 175 | 3.2 | 3.2 | 0.00 | 0.00 | 0.00 | 83 | 1013.5 |
| 20260508085809 | -17 | 0.0 | 0.0 | 0.00 | 0.00 | 0.00 | 1013.7 | ||
| 20260508085307 | -17 | 0.0 | 0.0 | 0.00 | 0.00 | 0.00 | 1013.8 | ||
| 20260508084802 | 4 | 133 | 0.0 | 0.0 | 0.00 | 0.00 | 0.00 | 82 | 1013.8 |
| 20260508084259 | 4 | 133 | 0.0 | 0.0 | 0.00 | 0.00 | 0.00 | 82 | 1013.7 |
| 20260508083757 | -17 | 0.0 | 0.0 | 0.00 | 0.00 | 0.00 | 1013.5 | ||
| 20260508083254 | -17 | 0.0 | 0.0 | 0.00 | 0.00 | 0.00 | 1013.8 | ||
| 20260508082754 | -17 | 0.0 | 0.0 | 0.00 | 0.00 | 0.00 | 1013.9 | ||
| 20260508082252 | 4 | 151 | 0.0 | 0.0 | 0.00 | 0.00 | 0.00 | 80 | 1013.6 |
| 20260508081749 | 4 | 151 | 0.0 | 0.0 | 0.00 | 0.00 | 0.00 | 80 | 1013.7 |
| 20260508081246 | 5 | 161 | 1.6 | 1.6 | 0.00 | 0.00 | 0.00 | 80 | 1013.5 |
| 20260508080743 | 5 | 143 | 0.0 | 0.0 | 0.00 | 0.00 | 0.00 | 79 | 1013.6 |
| 20260508080241 | 5 | 143 | 0.0 | 0.0 | 0.00 | 0.00 | 0.00 | 79 | 1013.6 |
| 20260508075737 | 5 | 148 | 0.0 | 0.0 | 0.00 | 0.00 | 0.00 | 78 | 1013.5 |
| 20260508075234 | 5 | 147 | 0.0 | 0.0 | 0.00 | 0.00 | 0.00 | 78 | 1013.6 |
| 20260508074732 | 5 | 148 | 0.0 | 0.0 | 0.00 | 0.00 | 0.00 | 78 | 1013.5 |
| 20260508074229 | 5 | 110 | 0.0 | 0.0 | 0.00 | 0.00 | 0.00 | 77 | 1013.6 |
| 20260508073725 | 5 | 111 | 0.0 | 0.0 | 0.00 | 0.00 | 0.00 | 77 | 1013.5 |
| 20260508073224 | 5 | 112 | 0.0 | 0.0 | 0.00 | 0.00 | 0.00 | 76 | 1013.6 |
| 20260508072719 | 5 | 114 | 0.0 | 0.0 | 0.00 | 0.00 | 0.00 | 77 | 1013.4 |
| 20260508072216 | 6 | 91 | 1.6 | 1.6 | 0.00 | 0.00 | 0.00 | 79 | 1013.3 |
| 20260508071714 | -17 | 0.0 | 0.0 | 0.00 | 0.00 | 0.00 | 1013.2 | ||
| 20260508071212 | -17 | 0.0 | 0.0 | 0.00 | 0.00 | 0.00 | 1013.3 | ||
| 20260508070709 | -17 | 0.0 | 0.0 | 0.00 | 0.00 | 0.00 | 1013.3 | ||
| 20260508070208 | -17 | 0.0 | 0.0 | 0.00 | 0.00 | 0.00 | 1013.2 | ||
| 20260508065704 | -17 | 0.0 | 0.0 | 0.00 | 0.00 | 0.00 | 1013.3 | ||
| 20260508065203 | -17 | 0.0 | 0.0 | 0.00 | 0.00 | 0.00 | 1013.2 | ||
| 20260508064700 | -17 | 0.0 | 0.0 | 0.00 | 0.00 | 0.00 | 1013.2 | ||
| 20260508064158 | -17 | 0.0 | 0.0 | 0.00 | 0.00 | 0.00 | 1013.2 | ||
| 20260508063655 | -17 | 0.0 | 0.0 | 0.00 | 0.00 | 0.00 | 1013.2 | ||
| 20260508063153 | 7 | 149 | 0.0 | 0.0 | 0.00 | 0.00 | 0.00 | 70 | 1013.2 |
| 20260508062650 | 7 | 149 | 0.0 | 0.0 | 0.00 | 0.00 | 0.00 | 70 | 1013.3 |
| 20260508062147 | -17 | 0.0 | 0.0 | 0.00 | 0.00 | 0.00 | 1013.0 | ||
| 20260508061644 | -17 | 0.0 | 0.0 | 0.00 | 0.00 | 0.00 | 1013.3 | ||
| 20260508061142 | -17 | 0.0 | 0.0 | 0.00 | 0.00 | 0.00 | 1013.3 | ||
| 20260508060638 | -17 | 0.0 | 0.0 | 0.00 | 0.00 | 0.00 | 1013.1 | ||
| 20260508060135 | -17 | 0.0 | 0.0 | 0.00 | 0.00 | 0.00 | 1013.0 | ||
| 20260508055631 | -17 | 0.0 | 0.0 | 0.00 | 0.00 | 0.00 | 1013.1 | ||
| 20260508055128 | -17 | 0.0 | 0.0 | 0.00 | 0.00 | 0.00 | 1013.0 | ||
| 20260508054624 | -17 | 0.0 | 0.0 | 0.00 | 0.00 | 0.00 | 1013.0 | ||
| 20260508054122 | -17 | 0.0 | 0.0 | 0.00 | 0.00 | 0.00 | 1013.0 | ||
| 20260508053619 | 8 | 120 | 0.0 | 0.0 | 0.00 | 0.00 | 0.00 | 67 | 1013.0 |
| 20260508053116 | 8 | 120 | 0.0 | 0.0 | 0.00 | 0.00 | 0.00 | 67 | 1012.9 |
| 20260508052614 | -17 | 0.0 | 0.0 | 0.00 | 0.00 | 0.00 | 1012.9 | ||
| 20260508052111 | -17 | 0.0 | 0.0 | 0.00 | 0.00 | 0.00 | 1012.9 | ||
| 20260508051607 | -17 | 0.0 | 0.0 | 0.00 | 0.00 | 0.00 | 1013.0 | ||
| 20260508051102 | -17 | 0.0 | 0.0 | 0.00 | 0.00 | 0.00 | 1012.9 | ||
| 20260508050558 | -17 | 0.0 | 0.0 | 0.00 | 0.00 | 0.00 | 1013.0 | ||
| 20260508050056 | -17 | 0.0 | 0.0 | 0.00 | 0.00 | 0.00 | 1012.7 | ||
| 20260508045552 | -17 | 0.0 | 0.0 | 0.00 | 0.00 | 0.00 | 1013.1 | ||
| 20260508045050 | -17 | 0.0 | 0.0 | 0.00 | 0.00 | 0.00 | 1012.9 | ||
| 20260508044547 | -17 | 0.0 | 0.0 | 0.00 | 0.00 | 0.00 | 1013.2 | ||
| 20260508044043 | 11 | 117 | 0.0 | 0.0 | 0.00 | 0.00 | 0.00 | 63 | 1013.0 |
| 20260508043539 | 11 | 117 | 0.0 | 0.0 | 0.00 | 0.00 | 0.00 | 63 | 1012.9 |
| 20260508043037 | 11 | 117 | 0.0 | 0.0 | 0.00 | 0.00 | 0.00 | 63 | 1012.9 |
| 20260508042533 | 11 | 103 | 0.0 | 1.6 | 0.00 | 0.00 | 0.00 | 64 | 1013.0 |
| 20260508042031 | -17 | 0.0 | 0.0 | 0.00 | 0.00 | 0.00 | 1012.9 | ||
| 20260508041527 | -17 | 0.0 | 0.0 | 0.00 | 0.00 | 0.00 | 1012.7 | ||
| 20260508041024 | -17 | 0.0 | 0.0 | 0.00 | 0.00 | 0.00 | 1012.7 | ||
| 20260508040521 | -17 | 0.0 | 0.0 | 0.00 | 0.00 | 0.00 | 1012.6 | ||
| 20260508040019 | -17 | 0.0 | 0.0 | 0.00 | 0.00 | 0.00 | 1012.6 | ||
| 20260508035515 | -17 | 0.0 | 0.0 | 0.00 | 0.00 | 0.00 | 1012.5 | ||
| 20260508035012 | -17 | 0.0 | 0.0 | 0.00 | 0.00 | 0.00 | 1012.7 | ||
| 20260508034510 | 12 | 131 | 0.0 | 0.0 | 0.00 | 0.00 | 0.00 | 56 | 1012.9 |
| 20260508034006 | 12 | 131 | 0.0 | 0.0 | 0.00 | 0.00 | 0.00 | 56 | 1012.5 |
| 20260508033504 | 12 | 148 | 0.0 | 0.0 | 0.00 | 0.00 | 0.00 | 58 | 1012.4 |
| 20260508033002 | 13 | 174 | 1.6 | 1.6 | 0.00 | 0.00 | 0.00 | 57 | 1012.5 |
| 20260508032458 | 13 | 132 | 1.6 | 1.6 | 0.00 | 0.00 | 0.00 | 53 | 1012.3 |
| 20260508031955 | 13 | 153 | 0.0 | 0.0 | 0.00 | 0.00 | 0.00 | 54 | 1012.4 |
| 20260508031453 | 14 | 121 | 0.0 | 0.0 | 0.00 | 0.00 | 0.00 | 52 | 1012.2 |
| 20260508030948 | 14 | 122 | 0.0 | 0.0 | 0.00 | 0.00 | 0.00 | 53 | 1012.2 |
| 20260508030445 | 14 | 121 | 0.0 | 0.0 | 0.00 | 0.00 | 0.00 | 51 | 1012.0 |
| 20260508025943 | 14 | 104 | 0.0 | 0.0 | 0.00 | 0.00 | 0.00 | 49 | 1012.0 |
| 20260508025439 | 15 | 109 | 0.0 | 0.0 | 0.00 | 0.00 | 0.00 | 50 | 1012.3 |
| 20260508024937 | 15 | 160 | 0.0 | 1.6 | 0.00 | 0.00 | 0.00 | 48 | 1012.1 |
| 20260508024432 | 16 | 158 | 1.6 | 1.6 | 0.00 | 0.00 | 0.00 | 48 | 1012.2 |
| 20260508023929 | 16 | 123 | 0.0 | 0.0 | 0.00 | 0.00 | 0.00 | 46 | 1012.2 |
| 20260508023426 | 17 | 116 | 0.0 | 0.0 | 0.00 | 0.00 | 0.00 | 45 | 1011.9 |
| 20260508022923 | -17 | 0.0 | 0.0 | 0.00 | 0.00 | 0.00 | 1012.0 | ||
| 20260508022419 | 19 | 138 | 1.6 | 1.6 | 0.00 | 0.00 | 0.00 | 35 | 1011.8 |
| 20260508021916 | 19 | 138 | 1.6 | 1.6 | 0.00 | 0.00 | 0.00 | 35 | 1011.8 |
| 20260508021412 | 20 | 156 | 1.6 | 1.6 | 0.00 | 0.00 | 0.00 | 33 | 1011.9 |
| 20260508020908 | 20 | 136 | 0.0 | 0.0 | 0.00 | 0.00 | 0.00 | 32 | 1012.1 |
| 20260508020406 | 19 | 106 | 0.0 | 0.0 | 0.00 | 0.00 | 0.00 | 33 | 1012.0 |
| 20260508015903 | 18 | 132 | 0.0 | 0.0 | 0.00 | 0.00 | 0.00 | 36 | 1012.0 |
| 20260508015401 | 19 | 91 | 0.0 | 0.0 | 0.00 | 0.00 | 0.00 | 39 | 1011.9 |
| 20260508014857 | 20 | 95 | 1.6 | 3.2 | 0.00 | 0.00 | 0.00 | 36 | 1012.0 |
| 20260508014354 | 20 | 127 | 0.0 | 0.0 | 0.00 | 0.00 | 0.00 | 34 | 1011.9 |
| 20260508013849 | 20 | 152 | 0.0 | 0.0 | 0.00 | 0.00 | 0.00 | 32 | 1011.7 |
| 20260508013346 | 20 | 342 | 3.2 | 4.8 | 0.00 | 0.00 | 0.00 | 30 | 1011.9 |
| 20260508012843 | 20 | 160 | 0.0 | 0.0 | 0.00 | 0.00 | 0.00 | 29 | 1011.7 |
| 20260508012340 | 20 | 156 | 0.0 | 0.0 | 0.00 | 0.00 | 0.00 | 31 | 1011.8 |
| 20260508011838 | 20 | 266 | 11.3 | 12.9 | 0.00 | 0.00 | 0.00 | 27 | 1011.7 |
| 20260508011336 | 20 | 226 | 4.8 | 4.8 | 0.00 | 0.00 | 0.00 | 30 | 1011.8 |
| 20260508010833 | 21 | 297 | 6.4 | 6.4 | 0.00 | 0.00 | 0.00 | 30 | 1011.9 |
| 20260508010330 | 21 | 280 | 3.2 | 4.8 | 0.00 | 0.00 | 0.00 | 29 | 1011.9 |
| 20260508005827 | 22 | 157 | 3.2 | 3.2 | 0.00 | 0.00 | 0.00 | 29 | 1011.9 |
| 20260508005324 | 22 | 245 | 6.4 | 6.4 | 0.00 | 0.00 | 0.00 | 24 | 1011.7 |
| 20260508004820 | 22 | 271 | 8.0 | 12.9 | 0.00 | 0.00 | 0.00 | 20 | 1011.9 |
| 20260508004316 | 22 | 282 | 8.0 | 9.7 | 0.00 | 0.00 | 0.00 | 20 | 1012.0 |
| 20260508003813 | 22 | 224 | 6.4 | 9.7 | 0.00 | 0.00 | 0.00 | 21 | 1011.7 |
| 20260508003310 | 22 | 233 | 4.8 | 4.8 | 0.00 | 0.00 | 0.00 | 22 | 1011.7 |
| 20260508002807 | 22 | 238 | 8.0 | 11.3 | 0.00 | 0.00 | 0.00 | 22 | 1011.7 |
| 20260508002306 | 22 | 310 | 4.8 | 9.7 | 0.00 | 0.00 | 0.00 | 22 | 1011.9 |
| 20260508001800 | 22 | 255 | 3.2 | 4.8 | 0.00 | 0.00 | 0.00 | 20 | 1011.9 |
| 20260508001256 | 22 | 211 | 6.4 | 11.3 | 0.00 | 0.00 | 0.00 | 21 | 1011.9 |
| 20260508000752 | 22 | 130 | 1.6 | 1.6 | 0.00 | 0.00 | 0.00 | 20 | 1012.0 |
| 20260508000250 | 22 | 286 | 11.3 | 12.9 | 0.00 | 0.00 | 0.00 | 19 | 1011.7 |
| 20260507235745 | 23 | 209 | 8.0 | 9.7 | 0.00 | 0.00 | 0.00 | 18 | 1011.7 |
| 20260507235243 | 22 | 309 | 6.4 | 6.4 | 0.00 | 0.00 | 0.00 | 17 | 1011.7 |
| 20260507234740 | 23 | 256 | 6.4 | 9.7 | 0.00 | 0.00 | 0.00 | 18 | 1011.7 |
| 20260507234237 | 23 | 267 | 6.4 | 6.4 | 0.00 | 0.00 | 0.00 | 18 | 1011.7 |
| 20260507233733 | 23 | 125 | 1.6 | 3.2 | 0.00 | 0.00 | 0.00 | 21 | 1011.7 |
| 20260507233231 | 23 | 102 | 0.0 | 1.6 | 0.00 | 0.00 | 0.00 | 19 | 1011.8 |
| 20260507232728 | 22 | 267 | 4.8 | 6.4 | 0.00 | 0.00 | 0.00 | 18 | 1011.8 |
| 20260507232225 | 22 | 164 | 3.2 | 3.2 | 0.00 | 0.00 | 0.00 | 21 | 1011.8 |
| 20260507231721 | 23 | 261 | 14.5 | 16.1 | 0.00 | 0.00 | 0.00 | 21 | 1012.0 |
| 20260507231219 | 23 | 158 | 1.6 | 3.2 | 0.00 | 0.00 | 0.00 | 21 | 1011.8 |
| 20260507230715 | 23 | 137 | 3.2 | 6.4 | 0.00 | 0.00 | 0.00 | 20 | 1011.9 |
| 20260507230213 | 23 | 268 | 6.4 | 6.4 | 0.00 | 0.00 | 0.00 | 18 | 1011.9 |
| 20260507225712 | 24 | 231 | 3.2 | 4.8 | 0.00 | 0.00 | 0.00 | 21 | 1011.8 |
| 20260507225209 | 23 | 219 | 8.0 | 11.3 | 0.00 | 0.00 | 0.00 | 20 | 1012.0 |
| 20260507224705 | 22 | 171 | 3.2 | 3.2 | 0.00 | 0.00 | 0.00 | 18 | 1012.0 |
| 20260507224201 | 23 | 253 | 9.7 | 11.3 | 0.00 | 0.00 | 0.00 | 20 | 1012.1 |
| 20260507223657 | 22 | 267 | 3.2 | 4.8 | 0.00 | 0.00 | 0.00 | 17 | 1011.9 |
| 20260507223154 | 22 | 226 | 6.4 | 11.3 | 0.00 | 0.00 | 0.00 | 20 | 1012.1 |
| 20260507222651 | 23 | 244 | 9.7 | 11.3 | 0.00 | 0.00 | 0.00 | 20 | 1012.2 |
| 20260507222147 | 23 | 174 | 1.6 | 1.6 | 0.00 | 0.00 | 0.00 | 20 | 1012.2 |
| 20260507221644 | 22 | 240 | 9.7 | 11.3 | 0.00 | 0.00 | 0.00 | 20 | 1012.2 |
| 20260507221140 | 23 | 91 | 1.6 | 1.6 | 0.00 | 0.00 | 0.00 | 23 | 1012.2 |
| 20260507220638 | 23 | 310 | 4.8 | 6.4 | 0.00 | 0.00 | 0.00 | 23 | 1012.4 |
| 20260507220136 | 22 | 167 | 0.0 | 1.6 | 0.00 | 0.00 | 0.00 | 22 | 1012.3 |
| 20260507215631 | 22 | 203 | 3.2 | 4.8 | 0.00 | 0.00 | 0.00 | 23 | 1012.4 |
| 20260507215129 | 23 | 254 | 11.3 | 14.5 | 0.00 | 0.00 | 0.00 | 23 | 1012.5 |
| 20260507214626 | 22 | 42 | 8.0 | 9.7 | 0.00 | 0.00 | 0.00 | 24 | 1012.5 |
| 20260507214122 | 22 | 328 | 4.8 | 4.8 | 0.00 | 0.00 | 0.00 | 27 | 1012.3 |
| 20260507213618 | 22 | 253 | 8.0 | 9.7 | 0.00 | 0.00 | 0.00 | 25 | 1012.6 |
| 20260507213116 | 22 | 192 | 6.4 | 6.4 | 0.00 | 0.00 | 0.00 | 25 | 1012.6 |
| 20260507212612 | 23 | 189 | 3.2 | 3.2 | 0.00 | 0.00 | 0.00 | 24 | 1012.5 |
| 20260507212109 | 22 | 152 | 3.2 | 3.2 | 0.00 | 0.00 | 0.00 | 28 | 1012.5 |
| 20260507211605 | 22 | 343 | 3.2 | 6.4 | 0.00 | 0.00 | 0.00 | 27 | 1012.9 |
| 20260507211101 | 22 | 122 | 3.2 | 3.2 | 0.00 | 0.00 | 0.00 | 29 | 1012.6 |
| 20260507210559 | 21 | 270 | 6.4 | 6.4 | 0.00 | 0.00 | 0.00 | 28 | 1012.9 |
| 20260507210055 | 22 | 213 | 6.4 | 9.7 | 0.00 | 0.00 | 0.00 | 30 | 1012.7 |
| 20260507205552 | 22 | 37 | 4.8 | 6.4 | 0.00 | 0.00 | 0.00 | 28 | 1012.7 |
| 20260507205048 | 22 | 321 | 8.0 | 9.7 | 0.00 | 0.00 | 0.00 | 29 | 1012.7 |
| 20260507204545 | 22 | 301 | 4.8 | 6.4 | 0.00 | 0.00 | 0.00 | 30 | 1013.0 |
| 20260507204043 | 21 | 254 | 9.7 | 11.3 | 0.00 | 0.00 | 0.00 | 31 | 1013.0 |
| 20260507203540 | 21 | 355 | 6.4 | 9.7 | 0.00 | 0.00 | 0.00 | 30 | 1012.9 |
| 20260507203038 | 21 | 101 | 3.2 | 4.8 | 0.00 | 0.00 | 0.00 | 32 | 1013.0 |
| 20260507202533 | 21 | 202 | 4.8 | 9.7 | 0.00 | 0.00 | 0.00 | 29 | 1013.0 |
| 20260507202029 | 21 | 1 | 3.2 | 4.8 | 0.00 | 0.00 | 0.00 | 33 | 1013.0 |
| 20260507201525 | 21 | 316 | 6.4 | 9.7 | 0.00 | 0.00 | 0.00 | 31 | 1013.1 |
| 20260507201021 | 21 | 353 | 6.4 | 11.3 | 0.00 | 0.00 | 0.00 | 31 | 1013.2 |
| 20260507200517 | 21 | 142 | 4.8 | 4.8 | 0.00 | 0.00 | 0.00 | 29 | 1013.2 |
| 20260507200014 | 21 | 92 | 3.2 | 4.8 | 0.00 | 0.00 | 0.00 | 28 | 1013.2 |
| 20260507195511 | 21 | 175 | 6.4 | 11.3 | 0.00 | 0.00 | 0.00 | 30 | 1013.2 |
| 20260507195008 | 20 | 192 | 3.2 | 3.2 | 0.00 | 0.00 | 0.00 | 31 | 1013.1 |
| 20260507194504 | 20 | 106 | 3.2 | 3.2 | 0.00 | 0.00 | 0.00 | 28 | 1013.2 |
| 20260507194000 | 20 | 102 | 1.6 | 1.6 | 0.00 | 0.00 | 0.00 | 29 | 1013.4 |
| 20260507193458 | 21 | 266 | 3.2 | 4.8 | 0.00 | 0.00 | 0.00 | 29 | 1013.2 |
| 20260507192954 | 21 | 189 | 1.6 | 3.2 | 0.00 | 0.00 | 0.00 | 32 | 1013.5 |
| 20260507192450 | 20 | 39 | 3.2 | 3.2 | 0.00 | 0.00 | 0.00 | 31 | 1013.3 |
| 20260507191948 | 21 | 131 | 0.0 | 0.0 | 0.00 | 0.00 | 0.00 | 30 | 1013.5 |
| 20260507191443 | 20 | 196 | 4.8 | 6.4 | 0.00 | 0.00 | 0.00 | 30 | 1013.4 |
| 20260507190940 | 20 | 163 | 1.6 | 3.2 | 0.00 | 0.00 | 0.00 | 32 | 1013.6 |
| 20260507190438 | 20 | 202 | 3.2 | 4.8 | 0.00 | 0.00 | 0.00 | 32 | 1013.6 |
| 20260507185937 | 20 | 278 | 9.7 | 11.3 | 0.00 | 0.00 | 0.00 | 33 | 1013.4 |
| 20260507185433 | 20 | 33 | 6.4 | 9.7 | 0.00 | 0.00 | 0.00 | 35 | 1013.6 |
| 20260507184930 | 20 | 312 | 3.2 | 3.2 | 0.00 | 0.00 | 0.00 | 35 | 1013.5 |
| 20260507184428 | 20 | 226 | 4.8 | 4.8 | 0.00 | 0.00 | 0.00 | 33 | 1013.6 |
| 20260507183926 | 18 | 88 | 1.6 | 3.2 | 0.00 | 0.00 | 0.00 | 34 | 1013.6 |
| 20260507183422 | 18 | 233 | 1.6 | 3.2 | 0.00 | 0.00 | 0.00 | 35 | 1014.0 |
| 20260507182920 | 20 | 284 | 6.4 | 9.7 | 0.00 | 0.00 | 0.00 | 35 | 1013.7 |
| 20260507182415 | 20 | 106 | 1.6 | 3.2 | 0.00 | 0.00 | 0.00 | 36 | 1013.7 |
| 20260507181912 | 18 | 158 | 3.2 | 3.2 | 0.00 | 0.00 | 0.00 | 36 | 1013.7 |
| 20260507181408 | 18 | 60 | 4.8 | 4.8 | 0.00 | 0.00 | 0.00 | 38 | 1013.9 |
| 20260507180905 | 18 | 153 | 3.2 | 4.8 | 0.00 | 0.00 | 0.00 | 39 | 1013.9 |
| 20260507180401 | 19 | 59 | 1.6 | 3.2 | 0.00 | 0.00 | 0.00 | 36 | 1013.8 |
| 20260507175857 | 18 | 130 | 0.0 | 0.0 | 0.00 | 0.00 | 0.00 | 36 | 1013.9 |
| 20260507175354 | 17 | 78 | 3.2 | 3.2 | 0.00 | 0.00 | 0.00 | 39 | 1014.0 |
| 20260507174852 | 18 | 282 | 9.7 | 11.3 | 0.00 | 0.00 | 0.00 | 37 | 1013.9 |
| 20260507174349 | 18 | 117 | 3.2 | 3.2 | 0.00 | 0.00 | 0.00 | 38 | 1014.0 |
| 20260507173847 | 18 | 113 | 0.0 | 1.6 | 0.00 | 0.00 | 0.00 | 40 | 1014.0 |
| 20260507173343 | 18 | 28 | 1.6 | 3.2 | 0.00 | 0.00 | 0.00 | 39 | 1014.0 |
| 20260507172840 | 18 | 172 | 1.6 | 3.2 | 0.00 | 0.00 | 0.00 | 39 | 1014.2 |
| 20260507172337 | 18 | 2 | 6.4 | 9.7 | 0.00 | 0.00 | 0.00 | 39 | 1014.0 |
| 20260507171832 | 18 | 274 | 3.2 | 4.8 | 0.00 | 0.00 | 0.00 | 39 | 1014.0 |
| 20260507171329 | 17 | 70 | 4.8 | 6.4 | 0.00 | 0.00 | 0.00 | 38 | 1014.3 |
| 20260507170827 | 17 | 185 | 3.2 | 3.2 | 0.00 | 0.00 | 0.00 | 40 | 1013.9 |
| 20260507170323 | 18 | 194 | 3.2 | 3.2 | 0.00 | 0.00 | 0.00 | 41 | 1013.8 |
| 20260507165819 | 18 | 144 | 1.6 | 3.2 | 0.00 | 0.00 | 0.00 | 42 | 1014.2 |
| 20260507165315 | 17 | 137 | 4.8 | 4.8 | 0.00 | 0.00 | 0.00 | 41 | 1014.2 |
| 20260507164811 | 18 | 174 | 3.2 | 4.8 | 0.00 | 0.00 | 0.00 | 41 | 1013.8 |
| 20260507164308 | 17 | 94 | 0.0 | 1.6 | 0.00 | 0.00 | 0.00 | 41 | 1014.0 |
| 20260507163806 | 17 | 96 | 0.0 | 1.6 | 0.00 | 0.00 | 0.00 | 45 | 1013.8 |
| 20260507163303 | 17 | 105 | 3.2 | 4.8 | 0.00 | 0.00 | 0.00 | 43 | 1013.9 |
| 20260507162759 | 16 | 112 | 1.6 | 1.6 | 0.00 | 0.00 | 0.00 | 48 | 1014.2 |
| 20260507162255 | 16 | 46 | 6.4 | 6.4 | 0.00 | 0.00 | 0.00 | 46 | 1014.0 |
| 20260507161752 | 16 | 64 | 4.8 | 6.4 | 0.00 | 0.00 | 0.00 | 48 | 1013.9 |
| 20260507161249 | 16 | 85 | 1.6 | 1.6 | 0.00 | 0.00 | 0.00 | 49 | 1014.2 |
| 20260507160744 | 16 | 88 | 1.6 | 1.6 | 0.00 | 0.00 | 0.00 | 48 | 1013.7 |
| 20260507160241 | 16 | 102 | 1.6 | 1.6 | 0.00 | 0.00 | 0.00 | 46 | 1013.6 |
| 20260507155737 | 16 | 151 | 1.6 | 1.6 | 0.00 | 0.00 | 0.00 | 48 | 1013.7 |
| 20260507155233 | 15 | 111 | 0.0 | 1.6 | 0.00 | 0.00 | 0.00 | 56 | 1014.0 |
| 20260507154730 | 15 | 92 | 3.2 | 3.2 | 0.00 | 0.00 | 0.00 | 57 | 1014.0 |
| 20260507154228 | 15 | 131 | 0.0 | 0.0 | 0.00 | 0.00 | 0.00 | 58 | 1013.7 |
| 20260507153724 | 13 | 125 | 0.0 | 0.0 | 0.00 | 0.00 | 0.00 | 60 | 1014.2 |
| 20260507153220 | 13 | 109 | 0.0 | 0.0 | 0.00 | 0.00 | 0.00 | 63 | 1014.0 |
| 20260507152717 | 12 | 130 | 0.0 | 0.0 | 0.00 | 0.00 | 0.00 | 66 | 1014.0 |
| 20260507152213 | 11 | 169 | 1.6 | 1.6 | 0.00 | 0.00 | 0.00 | 69 | 1014.0 |
| 20260507151709 | 11 | 94 | 1.6 | 1.6 | 0.00 | 0.00 | 0.00 | 70 | 1014.4 |
| 20260507151206 | 11 | 147 | 0.0 | 0.0 | 0.00 | 0.00 | 0.00 | 71 | 1014.0 |
| 20260507150703 | 11 | 151 | 0.0 | 0.0 | 0.00 | 0.00 | 0.00 | 69 | 1014.2 |
| 20260507150200 | 11 | 120 | 0.0 | 0.0 | 0.00 | 0.00 | 0.00 | 67 | 1014.3 |
| 20260507145655 | 11 | 138 | 0.0 | 0.0 | 0.00 | 0.00 | 0.00 | 68 | 1013.9 |
| 20260507145152 | 10 | 114 | 0.0 | 0.0 | 0.00 | 0.00 | 0.00 | 70 | 1013.9 |
| 20260507144649 | 10 | 114 | 0.0 | 1.6 | 0.00 | 0.00 | 0.00 | 69 | 1013.9 |
| 20260507144147 | 10 | 91 | 0.0 | 0.0 | 0.00 | 0.00 | 0.00 | 70 | 1013.8 |
| 20260507143644 | 10 | 137 | 0.0 | 0.0 | 0.00 | 0.00 | 0.00 | 70 | 1013.9 |
| 20260507143141 | 10 | 132 | 0.0 | 0.0 | 0.00 | 0.00 | 0.00 | 70 | 1013.7 |
| 20260507142636 | 10 | 139 | 0.0 | 0.0 | 0.00 | 0.00 | 0.00 | 71 | 1013.8 |
| 20260507142133 | 10 | 151 | 0.0 | 0.0 | 0.00 | 0.00 | 0.00 | 72 | 1013.8 |
| 20260507141629 | 9 | 161 | 0.0 | 0.0 | 0.00 | 0.00 | 0.00 | 73 | 1013.7 |
| 20260507141127 | 9 | 128 | 0.0 | 0.0 | 0.00 | 0.00 | 0.00 | 73 | 1013.7 |
| 20260507140623 | 9 | 164 | 3.2 | 3.2 | 0.00 | 0.00 | 0.00 | 74 | 1013.8 |
| 20260507140120 | 9 | 120 | 0.0 | 0.0 | 0.00 | 0.00 | 0.00 | 74 | 1013.7 |
| 20260507135617 | 9 | 117 | 0.0 | 1.6 | 0.00 | 0.00 | 0.00 | 73 | 1013.6 |
| 20260507135115 | 10 | 110 | 0.0 | 0.0 | 0.00 | 0.00 | 0.00 | 70 | 1013.7 |
| 20260507134611 | 9 | 137 | 0.0 | 0.0 | 0.00 | 0.00 | 0.00 | 71 | 1013.4 |
| 20260507134107 | 9 | 140 | 0.0 | 0.0 | 0.00 | 0.00 | 0.00 | 71 | 1013.5 |
| 20260507133603 | 9 | 152 | 0.0 | 0.0 | 0.00 | 0.00 | 0.00 | 70 | 1013.6 |
| 20260507133101 | 8 | 116 | 0.0 | 0.0 | 0.00 | 0.00 | 0.00 | 71 | 1013.6 |
| 20260507132557 | 9 | 151 | 0.0 | 0.0 | 0.00 | 0.00 | 0.00 | 70 | 1013.5 |
| 20260507132054 | 8 | 132 | 0.0 | 0.0 | 0.00 | 0.00 | 0.00 | 70 | 1013.4 |
| 20260507131551 | 8 | 114 | 3.2 | 3.2 | 0.00 | 0.00 | 0.00 | 72 | 1013.2 |
| 20260507131048 | 8 | 134 | 0.0 | 0.0 | 0.00 | 0.00 | 0.00 | 72 | 1013.3 |
| 20260507130545 | 8 | 96 | 0.0 | 0.0 | 0.00 | 0.00 | 0.00 | 72 | 1013.5 |
| 20260507130043 | 7 | 136 | 0.0 | 0.0 | 0.00 | 0.00 | 0.00 | 74 | 1013.5 |
| 20260507125542 | 7 | 136 | 0.0 | 0.0 | 0.00 | 0.00 | 0.00 | 75 | 1013.4 |
| 20260507125038 | 7 | 148 | 0.0 | 0.0 | 0.00 | 0.00 | 0.00 | 75 | 1013.4 |
| 20260507124535 | 6 | 133 | 0.0 | 0.0 | 0.00 | 0.00 | 0.00 | 77 | 1013.4 |
| 20260507124033 | 6 | 156 | 1.6 | 1.6 | 0.00 | 0.00 | 0.00 | 77 | 1013.3 |
| 20260507123531 | 6 | 150 | 0.0 | 0.0 | 0.00 | 0.00 | 0.00 | 79 | 1013.4 |
| 20260507123027 | 6 | 163 | 1.6 | 1.6 | 0.00 | 0.00 | 0.00 | 79 | 1013.4 |
| 20260507122522 | 6 | 150 | 1.6 | 1.6 | 0.00 | 0.00 | 0.00 | 78 | 1013.5 |
| 20260507122018 | 7 | 153 | 3.2 | 3.2 | 0.00 | 0.00 | 0.00 | 77 | 1013.3 |
| 20260507121514 | 7 | 162 | 3.2 | 3.2 | 0.00 | 0.00 | 0.00 | 76 | 1013.4 |
| 20260507121010 | 7 | 175 | 3.2 | 3.2 | 0.00 | 0.00 | 0.00 | 76 | 1013.5 |
| 20260507120506 | 7 | 158 | 0.0 | 0.0 | 0.00 | 0.00 | 0.00 | 78 | 1013.2 |
| 20260507120004 | 7 | 148 | 0.0 | 0.0 | 0.00 | 0.00 | 0.00 | 76 | 1013.2 |